Time,TemperatureF,DewpointF,PressureIn,WindDirection,WindDirectionDegrees,WindSpeedMPH,WindSpeedGustMPH,Humidity,HourlyPrecipIn,Conditions,Clouds,dailyrainin,SoftwareType,DateUTC
2013-01-29 00:12:00,33.3,33.0,29.91,West,270,0.0,-999.0,99,-99.99,,,0.00,Acu-Link.com,2013-01-29 05:12:00,
2013-01-29 00:27:00,33.3,33.0,29.92,SW,225,0.0,-999.0,99,-99.99,,,0.00,Acu-Link.com,2013-01-29 05:27:00,
2013-01-29 00:43:00,33.1,32.8,29.92,SSW,202,0.0,-999.0,99,-99.99,,,0.01,Acu-Link.com,2013-01-29 05:43:00,
2013-01-29 00:58:00,33.1,32.8,29.92,SW,225,0.0,-999.0,99,-99.99,,,0.01,Acu-Link.com,2013-01-29 05:58:00,
2013-01-29 01:13:00,33.1,32.8,29.92,ENE,67,0.0,-999.0,99,-99.99,,,0.01,Acu-Link.com,2013-01-29 06:13:00,
2013-01-29 01:29:00,33.1,32.8,29.93,NE,45,0.0,-999.0,99,-99.99,,,0.01,Acu-Link.com,2013-01-29 06:29:00,
2013-01-29 01:44:00,32.9,32.7,29.93,NW,315,0.0,-999.0,99,-99.99,,,0.01,Acu-Link.com,2013-01-29 06:44:00,
2013-01-29 01:59:00,32.9,32.7,29.93,NNE,22,0.0,-999.0,99,-99.99,,,0.02,Acu-Link.com,2013-01-29 06:59:00,
2013-01-29 02:14:00,32.7,32.5,29.94,NNW,337,0.0,-999.0,99,-99.99,,,0.02,Acu-Link.com,2013-01-29 07:14:00,
2013-01-29 02:30:00,32.5,32.3,29.95,NW,315,0.0,-999.0,99,-99.99,,,0.02,Acu-Link.com,2013-01-29 07:30:00,
2013-01-29 02:45:00,32.4,32.2,29.95,North,0,0.0,-999.0,99,-99.99,,,0.02,Acu-Link.com,2013-01-29 07:45:00,
2013-01-29 03:01:00,32.4,32.2,29.95,NNW,337,0.0,-999.0,99,-99.99,,,0.02,Acu-Link.com,2013-01-29 08:01:00,
2013-01-29 03:16:00,32.2,32.0,29.96,NNW,337,0.0,-999.0,99,-99.99,,,0.02,Acu-Link.com,2013-01-29 08:16:00,
2013-01-29 03:31:00,32.0,31.8,29.96,North,0,0.0,-999.0,99,-99.99,,,0.02,Acu-Link.com,2013-01-29 08:31:00,
2013-01-29 03:47:00,31.8,31.6,29.95,WNW,292,0.0,-999.0,99,-99.99,,,0.02,Acu-Link.com,2013-01-29 08:47:00,
2013-01-29 04:15:00,31.8,31.6,29.96,West,270,0.0,-999.0,99,-99.99,,,0.02,Acu-Link.com,2013-01-29 09:15:00,
2013-01-29 04:30:00,31.6,31.4,29.96,NNW,337,0.0,-999.0,99,-99.99,,,0.02,Acu-Link.com,2013-01-29 09:30:00,
2013-01-29 04:45:00,31.6,31.4,29.97,NNE,22,0.0,-999.0,99,-99.99,,,0.02,Acu-Link.com,2013-01-29 09:45:00,
2013-01-29 05:00:00,31.8,31.6,29.98,NNE,22,0.0,-999.0,99,-99.99,,,0.02,Acu-Link.com,2013-01-29 10:00:00,
2013-01-29 05:15:00,32.2,32.0,29.98,NNE,22,1.7,-999.0,99,-99.99,,,0.02,Acu-Link.com,2013-01-29 10:15:00,
2013-01-29 05:31:00,32.4,32.2,29.99,North,0,0.0,-999.0,99,-99.99,,,0.02,Acu-Link.com,2013-01-29 10:31:00,
2013-01-29 05:46:00,32.4,32.2,30.00,NNE,22,3.2,-999.0,99,-99.99,,,0.02,Acu-Link.com,2013-01-29 10:46:00,
2013-01-29 06:02:00,32.4,32.2,30.01,WNW,292,2.2,-999.0,99,-99.99,,,0.02,Acu-Link.com,2013-01-29 11:02:00,
2013-01-29 06:17:00,32.4,32.2,30.02,NW,315,1.7,-999.0,99,-99.99,,,0.02,Acu-Link.com,2013-01-29 11:17:00,
2013-01-29 06:32:00,32.2,32.0,30.02,North,0,2.7,-999.0,99,-99.99,,,0.02,Acu-Link.com,2013-01-29 11:32:00,
2013-01-29 06:48:00,32.0,31.8,30.03,NE,45,2.7,-999.0,99,-99.99,,,0.03,Acu-Link.com,2013-01-29 11:48:00,
2013-01-29 07:03:00,32.0,31.8,30.03,NNW,337,1.7,-999.0,99,-99.99,,,0.03,Acu-Link.com,2013-01-29 12:03:00,
2013-01-29 07:18:00,31.8,31.6,30.04,South,180,0.0,-999.0,99,-99.99,,,0.03,Acu-Link.com,2013-01-29 12:18:00,
2013-01-29 07:34:00,32.0,31.8,30.05,ESE,112,0.0,-999.0,99,-99.99,,,0.03,Acu-Link.com,2013-01-29 12:34:00,
2013-01-29 07:49:00,32.7,32.5,30.05,SE,135,0.0,-999.0,99,-99.99,,,0.03,Acu-Link.com,2013-01-29 12:49:00,
2013-01-29 08:04:00,34.0,33.2,30.07,NE,45,0.0,-999.0,97,-99.99,,,0.03,Acu-Link.com,2013-01-29 13:04:00,
2013-01-29 08:20:00,35.4,33.8,30.08,NNE,22,0.0,-999.0,94,-99.99,,,0.03,Acu-Link.com,2013-01-29 13:20:00,
2013-01-29 08:35:00,34.7,32.9,30.08,NNE,22,1.7,-999.0,93,-99.99,,,0.03,Acu-Link.com,2013-01-29 13:35:00,
2013-01-29 08:50:00,34.5,32.7,30.08,NE,45,1.7,-999.0,93,-99.99,,,0.03,Acu-Link.com,2013-01-29 13:50:00,
2013-01-29 09:05:00,34.2,32.4,30.08,NW,315,1.1,-999.0,93,-99.99,,,0.04,Acu-Link.com,2013-01-29 14:05:00,
2013-01-29 09:21:00,34.3,32.5,30.08,ENE,67,1.7,-999.0,93,-99.99,,,0.04,Acu-Link.com,2013-01-29 14:21:00,
2013-01-29 09:36:00,35.4,33.0,30.09,NE,45,0.0,-999.0,91,-99.99,,,0.04,Acu-Link.com,2013-01-29 14:36:00,
2013-01-29 09:51:00,36.0,33.4,30.10,NE,45,0.0,-999.0,90,-99.99,,,0.05,Acu-Link.com,2013-01-29 14:51:00,
2013-01-29 10:07:00,36.7,33.5,30.11,WSW,247,0.0,-999.0,88,-99.99,,,0.06,Acu-Link.com,2013-01-29 15:07:00,
2013-01-29 10:22:00,37.0,33.2,30.12,NNW,337,2.2,-999.0,86,-99.99,,,0.07,Acu-Link.com,2013-01-29 15:22:00,
2013-01-29 10:37:00,38.5,34.1,30.11,ENE,67,2.2,-999.0,84,-99.99,,,0.08,Acu-Link.com,2013-01-29 15:37:00,
2013-01-29 10:53:00,38.7,33.4,30.10,North,0,1.7,-999.0,81,-99.99,,,0.09,Acu-Link.com,2013-01-29 15:53:00,
2013-01-29 11:08:00,36.7,33.2,30.10,NNE,22,0.0,-999.0,87,-99.99,,,0.11,Acu-Link.com,2013-01-29 16:08:00,
2013-01-29 11:23:00,36.7,32.9,30.10,NE,45,1.7,-999.0,86,-99.99,,,0.12,Acu-Link.com,2013-01-29 16:23:00,
2013-01-29 11:39:00,37.0,32.9,30.09,East,90,2.2,-999.0,85,-99.99,,,0.13,Acu-Link.com,2013-01-29 16:39:00,
2013-01-29 11:54:00,38.8,33.8,30.09,WNW,292,1.7,-999.0,82,-99.99,,,0.14,Acu-Link.com,2013-01-29 16:54:00,
2013-01-29 12:09:00,38.8,33.5,30.09,East,90,1.7,-999.0,81,-99.99,,,0.15,Acu-Link.com,2013-01-29 17:09:00,
2013-01-29 12:25:00,39.6,33.6,30.09,SSE,157,2.2,-999.0,79,-99.99,,,0.17,Acu-Link.com,2013-01-29 17:25:00,
2013-01-29 12:40:00,39.4,33.8,30.09,East,90,2.2,-999.0,80,-99.99,,,0.17,Acu-Link.com,2013-01-29 17:40:00,
2013-01-29 12:55:00,39.7,34.0,30.09,SE,135,0.0,-999.0,80,-99.99,,,0.17,Acu-Link.com,2013-01-29 17:55:00,
2013-01-29 13:11:00,39.6,33.9,30.08,SE,135,1.7,-999.0,80,-99.99,,,0.17,Acu-Link.com,2013-01-29 18:11:00,
2013-01-29 13:26:00,39.9,34.2,30.09,SE,135,2.7,-999.0,80,-99.99,,,0.17,Acu-Link.com,2013-01-29 18:26:00,
2013-01-29 13:41:00,39.6,33.9,30.09,SSE,157,3.7,-999.0,80,-99.99,,,0.17,Acu-Link.com,2013-01-29 18:41:00,
2013-01-29 13:57:00,40.3,34.6,30.09,SE,135,3.7,-999.0,80,-99.99,,,0.17,Acu-Link.com,2013-01-29 18:57:00,
2013-01-29 14:12:00,40.6,34.9,30.08,SE,135,2.2,-999.0,80,-99.99,,,0.17,Acu-Link.com,2013-01-29 19:12:00,
2013-01-29 14:27:00,40.3,34.9,30.08,South,180,2.7,-999.0,81,-99.99,,,0.17,Acu-Link.com,2013-01-29 19:27:00,
2013-01-29 14:43:00,39.9,34.9,30.08,South,180,1.1,-999.0,82,-99.99,,,0.17,Acu-Link.com,2013-01-29 19:43:00,
2013-01-29 14:58:00,39.4,34.7,30.09,East,90,1.7,-999.0,83,-99.99,,,0.17,Acu-Link.com,2013-01-29 19:58:00,
2013-01-29 15:13:00,38.8,34.7,30.10,SSE,157,3.7,-999.0,85,-99.99,,,0.17,Acu-Link.com,2013-01-29 20:13:00,
2013-01-29 15:29:00,39.2,35.1,30.10,South,180,1.7,-999.0,85,-99.99,,,0.17,Acu-Link.com,2013-01-29 20:29:00,
2013-01-29 15:44:00,39.4,35.3,30.11,ESE,112,6.3,-999.0,85,-99.99,,,0.17,Acu-Link.com,2013-01-29 20:44:00,
2013-01-29 15:59:00,39.0,34.9,30.12,WSW,247,1.1,-999.0,85,-99.99,,,0.17,Acu-Link.com,2013-01-29 20:59:00,
2013-01-29 16:15:00,38.8,35.6,30.11,SE,135,3.2,-999.0,88,-99.99,,,0.17,Acu-Link.com,2013-01-29 21:15:00,
2013-01-29 16:30:00,38.3,35.3,30.10,ESE,112,6.8,-999.0,89,-99.99,,,0.17,Acu-Link.com,2013-01-29 21:30:00,
2013-01-29 16:45:00,37.8,35.7,30.10,South,180,1.1,-999.0,92,-99.99,,,0.17,Acu-Link.com,2013-01-29 21:45:00,
2013-01-29 17:00:00,37.6,35.8,30.11,SE,135,3.2,-999.0,93,-99.99,,,0.17,Acu-Link.com,2013-01-29 22:00:00,
2013-01-29 17:16:00,37.4,35.6,30.11,South,180,3.2,-999.0,93,-99.99,,,0.17,Acu-Link.com,2013-01-29 22:16:00,
2013-01-29 17:31:00,37.2,35.4,30.13,SSW,202,2.2,-999.0,93,-99.99,,,0.17,Acu-Link.com,2013-01-29 22:31:00,
2013-01-29 17:47:00,37.0,35.4,30.13,ENE,67,3.2,-999.0,94,-99.99,,,0.17,Acu-Link.com,2013-01-29 22:47:00,
2013-01-29 18:02:00,36.9,35.3,30.14,ESE,112,2.7,-999.0,94,-99.99,,,0.17,Acu-Link.com,2013-01-29 23:02:00,
2013-01-29 18:17:00,36.9,35.3,30.14,SE,135,1.7,-999.0,94,-99.99,,,0.17,Acu-Link.com,2013-01-29 23:17:00,
2013-01-29 18:33:00,37.0,35.4,30.14,SSE,157,2.2,-999.0,94,-99.99,,,0.17,Acu-Link.com,2013-01-29 23:33:00,
2013-01-29 18:48:00,37.0,35.7,30.11,SW,225,5.8,-999.0,95,-99.99,,,0.17,Acu-Link.com,2013-01-29 23:48:00,
2013-01-29 19:03:00,37.2,35.9,30.12,SSE,157,4.2,-999.0,95,-99.99,,,0.17,Acu-Link.com,2013-01-30 00:03:00,
2013-01-29 19:19:00,37.2,35.9,30.10,SE,135,2.7,-999.0,95,-99.99,,,0.17,Acu-Link.com,2013-01-30 00:19:00,
2013-01-29 19:34:00,37.4,36.4,30.11,ENE,67,2.7,-999.0,96,-99.99,,,0.17,Acu-Link.com,2013-01-30 00:34:00,
2013-01-29 20:05:00,37.6,36.8,30.10,NW,315,2.2,-999.0,97,-99.99,,,0.17,Acu-Link.com,2013-01-30 01:05:00,
2013-01-29 20:20:00,37.4,36.6,30.10,NE,45,0.0,-999.0,97,-99.99,,,0.17,Acu-Link.com,2013-01-30 01:20:00,
2013-01-29 20:36:00,37.2,36.4,30.11,ENE,67,0.0,-999.0,97,-99.99,,,0.17,Acu-Link.com,2013-01-30 01:36:00,
2013-01-29 20:51:00,37.0,36.2,30.09,NE,45,0.0,-999.0,97,-99.99,,,0.17,Acu-Link.com,2013-01-30 01:51:00,
2013-01-29 21:06:00,37.0,36.2,30.10,North,0,0.0,-999.0,97,-99.99,,,0.17,Acu-Link.com,2013-01-30 02:06:00,
2013-01-29 21:21:00,37.0,36.5,30.10,NE,45,1.7,-999.0,98,-99.99,,,0.17,Acu-Link.com,2013-01-30 02:21:00,
2013-01-29 21:37:00,37.0,36.5,30.10,NNE,22,0.0,-999.0,98,-99.99,,,0.17,Acu-Link.com,2013-01-30 02:37:00,
2013-01-29 21:52:00,36.9,36.4,30.10,SW,225,0.0,-999.0,98,-99.99,,,0.17,Acu-Link.com,2013-01-30 02:52:00,
2013-01-29 22:08:00,36.9,36.4,30.09,WNW,292,0.0,-999.0,98,-99.99,,,0.17,Acu-Link.com,2013-01-30 03:08:00,
2013-01-29 22:23:00,36.7,36.4,30.09,NNW,337,0.0,-999.0,99,-99.99,,,0.17,Acu-Link.com,2013-01-30 03:23:00,
2013-01-29 22:38:00,36.5,36.2,30.07,NW,315,0.0,-999.0,99,-99.99,,,0.17,Acu-Link.com,2013-01-30 03:38:00,
2013-01-29 22:54:00,36.5,36.2,30.07,WNW,292,0.0,-999.0,99,-99.99,,,0.17,Acu-Link.com,2013-01-30 03:54:00,
2013-01-29 23:09:00,36.5,36.2,30.07,NNW,337,0.0,-999.0,99,-99.99,,,0.17,Acu-Link.com,2013-01-30 04:09:00,
2013-01-29 23:24:00,36.5,36.2,30.08,WSW,247,0.0,-999.0,99,-99.99,,,0.17,Acu-Link.com,2013-01-30 04:24:00,
2013-01-29 23:40:00,36.5,36.2,30.09,WNW,292,0.0,-999.0,99,-99.99,,,0.17,Acu-Link.com,2013-01-30 04:40:00,
2013-01-29 23:55:00,36.5,36.2,30.09,SW,225,0.0,-999.0,99,-99.99,,,0.17,Acu-Link.com,2013-01-30 04:55:00,